Regional Weather Roundup
Issued by NWS

Home | Current Version | Previous Version | Text Only | Print | Product List | Glossary On
Versions: 1 2 3 4 5 6 7 8 9 10 11 12 13 14 15 16 17 18 19 20 21 22 23 24 25 26 27 28 29 30 31 32 33 34 35 36 37 38 39 40 41 42 43 44 45 46 47 48 49 50
043
ASUS45 KBOU 251810
RWRCO

WEATHER ROUNDUP FOR COLORADO
NATIONAL WEATHER SERVICE DENVER/BOULDER CO
1100 AM MST SUN FEB 25 2018

NOTE: "FAIR" INDICATES FEW OR NO CLOUDS BELOW 12000 FEET WITH NO
SIGNIFICANT WEATHER AND/OR OBSTRUCTIONS TO VISIBILITY.

COZ001>005-013-030-031-251900-
...NORTHWEST COLORADO...

CITY           SKY/WX    TMP DP  RH WIND       PRES   REMARKS
CRAIG          MIX PCPN  23   8  52 W10       30.05R WCI  12
HAYDEN         NOT AVBL
MEEKER         FAIR      24   7  48 SW10      30.08R WCI  14
RANGELY        FAIR      27   9  45 W7        30.14R WCI  20
RABBIT EARS PA CLOUDY   N/A N/A N/A W10G21    29.82R FOG
STEAMBOAT SPGS PTSUNNY   21   7  54 W6        30.02R WCI  14
WALDEN         FAIR      18   1  49 SW16G22   29.91R WCI   3
$$

COZ006>008-011-251900-
...WEST CENTRAL VALLEYS...

CITY           SKY/WX    TMP DP  RH WIND       PRES   REMARKS
GRAND JUNCTION FAIR      33  19  56 N6        30.15R WCI  28
MONTROSE       FAIR      30  15  53 VRB3      30.15S
EAGLE          FAIR      25   8  48 SW22      30.06R WCI  10
RIFLE          FAIR      24  13  62 SW3       30.12S
DELTA          FAIR      33  18  54 CALM      30.15S
NUCLA          FAIR      30  14  51 CALM      30.18S
$$

COZ017>023-064>068-251900-
...SOUTHWEST COLORADO...

CITY           SKY/WX    TMP DP  RH WIND       PRES   REMARKS
DURANGO        FAIR      31   6  35 W17       30.06R WCI  19
CORTEZ         FAIR      33   5  30 W9        30.14R WCI  25
PAGOSA SPRINGS FAIR      27   2  35 N5        30.03R WCI  21
TELLURIDE      PTSUNNY   17   4  58 W9        30.06R WCI   5
WOLF CREEK PAS   N/A      5   3  92 W8        29.95R WCI  -8
$$

COZ009-010-012-014-032>034-037-058>063-251900-
...CENTRAL COLORADO...

CITY           SKY/WX    TMP DP  RH WIND       PRES   REMARKS
ASPEN          CLOUDY    20   7  57 N9        30.01R WCI   9
BUENA VISTA    CLOUDY    26  -7  23 SW15G28   29.93R WCI  14
COPPER MTN     SNOW       5  -2  72 W16G39    29.80R VSB 1/2 WCI -14
BERTHOUD PASS  SNOW      -4 -15  59 NW46G59   29.67R VSB 1/4 WCI -36
COTTONWOOD PAS CLOUDY    21  -4  33 W18G29    29.86R WCI   6
GUNNISON       CLOUDY    22   8  55 SW18G24   30.02R WCI   7
GRANBY         CLOUDY    15   6  66 W13       29.96R WCI   1
KREMMLING      CLOUDY    30  14  51 W10       30.00R WCI  21
LEADVILLE      MIX PCPN  10  -3  55 NW16G31   29.89R WCI  -7
MONARCH PASS   CLOUDY     1  -2  85 W51G61    29.87R WCI -29
SALIDA         CLOUDY    29  -6  22 W20G26    30.03R WCI  16
SUNLIGHT       FLURRIES   7   3  85 SW6G22    29.93F WCI  -3
WILKERSON PASS PTSUNNY   10 -11  37 W12G29    29.80S WCI  -4
$$

COZ069>075-251900-
...SAN LUIS VALLEY/SANGRE DE CRISTO MOUNTAINS...

CITY           SKY/WX    TMP DP  RH WIND       PRES   REMARKS
ALAMOSA        FAIR      29  -3  25 NW14G21   29.98R WCI  18
DEL NORTE      PTSUNNY   27  -3  26 W14       29.98R WCI  16
LA VETA PASS   PTSUNNY   19  -6  32 SW14G21   29.98F WCI   6
SAGUACHE       PTSUNNY   25   1  36 NW17G30   29.98  WCI  11
$$

COZ035-036-038>040-251900-
...NORTHERN COLORADO FRONT RANGE...

CITY           SKY/WX    TMP DP  RH WIND       PRES   REMARKS
DENVER INTL AP FAIR      35   2  24 W17G29    29.91R WCI  25
AURORA         MOSUNNY   34   1  24 W16G22    29.91F WCI  23
FRONT RANGE AP MOSUNNY   37   0  20 W25G32    29.93
ERIE MUNI ARPT FAIR      34  -1  23 S8        29.97S WCI  27
BOULDER MUN AP FAIR      36   3  25 E6        29.89F
CENTENNIAL     FAIR      31   2  29 VRB5      29.91F WCI  26
BROOMFIELD     MOSUNNY   32   3  29 W28       29.90F WCI  18
FORT COLLINS   FAIR      33   7  33 SE9       29.91F WCI  25
LONGMONT       FAIR      41  -1  17 CALM      29.91S
$$

COZ041-046-047-076>085-087-088-251900-
...PIKES PEAK/PALMER DIVIDE AND SOUTHERN FOOTHILLS...

CITY           SKY/WX    TMP DP  RH WIND       PRES   REMARKS
COLO. SPRINGS  PTSUNNY   33  -4  20 NW17G26   29.94R WCI  22
A. F. ACADEMY  FAIR      31  -6  19 W14G26    29.91S WCI  21
SCHRIEVER AFB  NOT AVBL
CHEYENNE MTN   PTSUNNY   29  -8  19 N8        29.86S WCI  22
ELLICOTT         N/A    N/A N/A N/A NW23G32   29.91S
FALCON         FAIR      31 -11  15 W12G21    29.93R WCI  22
FORT CARSON    FAIR      36  -7  15 W7G21       N/A
LIMON          FAIR      36  -3  19 NW16G30   29.93S
MONUMENT HILL  PTSUNNY   30  -6  21 W13G22    29.91S WCI  20
CANON CITY     PTSUNNY   39  -2  17 SW17G24   29.96R
WALSENBURG     NOT AVBL
TRINIDAD       FAIR      40  -4  15 NW21G28   29.96R
$$

COZ042>045-048>051-090-091-251900-
...NORTHEAST COLORADO...

CITY           SKY/WX    TMP DP  RH WIND       PRES   REMARKS
GREELEY ARPT   FAIR      35   5  28 SW8       29.93F WCI  29
AKRON          FAIR      36   6  28 W17G30    29.93R
BURLINGTON     FAIR      40  11  30 SW12      29.96F
WRAY           FAIR      43   3  19 NW21G30   29.95S
YUMA           NOT AVBL
STERLING       FAIR      41   9  26 NW25G31   29.93S
HOLYOKE        FAIR      41   9  26 NW24G30   29.93R
FORT MORGAN    FAIR      39   0  19 W23G29    29.94S
$$

COZ086-089-092>099-251900-
...SOUTHEAST COLORADO...

CITY           SKY/WX    TMP DP  RH WIND       PRES   REMARKS
PUEBLO         FAIR      43   1  17 W21G30    29.97R
LA JUNTA       FAIR      40  10  29 W12       29.99F
LAMAR          FAIR      40   9  28 W10       29.99S
SPRINGFIELD      N/A     42  10  27 NW12      29.97S
$$




USA.gov is the U.S. government's official web portal to all federal, state and local government web resources and services.